Location: São Paulo
(23.5507°S, 46.6334°W)
Time: 07:26:35
(UTC-03:00)

Transit 4A - Pass Details

Date: 17 February 2026
Orbit: 864 x 977 km, 66.8° (Epoch: 11 March)

Event Time Altitude Azimuth Distance (km) Brightness Sun altitude
Rises 02:07:59 0° 210° (SSW) 3,497 - -45.8°
Reaches altitude 10° 02:10:33 10° 214° (SW) 2,541 - -45.4°
Maximum altitude 02:16:13 53° 289° (WNW) 1,055 - -44.6°
Drops below altitude 10° 02:21:48 10° 5° (N) 2,494 - -43.7°
Sets 02:24:18 0° 10° (N) 3,426 - -43.3°
